Flag for Russia Weather past 2 weeks in Saratov, Russia

Now
66 °F

Partly sunny.


Feels Like: 66 °F
Forecast: 55 / 68 °F
Wind: 10 mph from Northwest

Location: Saratov / Tsentralny

Current Time: May 4, 2015 at 4:30:59 PM

Latest Report: May 4, 2015 at 4:00 PM


Visibility: N/A

Pressure: 29.68 "Hg

Humidity: 52%

Dew point: 48 °F

Location of SaratovLocation

Historic Weather in Saratov — Graph

°F

Saratov temperature yesterday

Maximum temperature yesterday: 72 °F (at 1:00 PM)
Minimum temperature yesterday: 55 °F (at 5:00 AM)
Average temperature yesterday: 63 °F

Past Weeks' High & Low Weather Summary

 TemperatureHumidityPressure
High77 °F (Apr 28, 1:00 PM)100% (Apr 20, 3:00 AM)30.15 "Hg (Apr 20, 3:00 AM)
Low32 °F (Apr 20, 5:00 AM)16% (Apr 26, 3:00 PM)29.21 "Hg (Apr 20, 6:00 AM)
Average55 °F53%29.82 "Hg
* Reported Apr 19 3:00 PM — May 4 3:30 PM, Saratov, Weather by CustomWeather, © 2015

Note: Actual official high and low records may vary slightly from our data, if they occured in-between our weather recording intervals... More about our weather records

Advertising

Saratov weather history for previous 24 hours

 ConditionsComfort  
Time TempWeatherWind HumidityBarometerVisibility
3:30 PM
Mon, May 4
66 °FPartly sunny.13 mph60%29.71 "HgN/A
3:00 PM66 °FPartly sunny.8 mph60%29.71 "HgN/A
2:30 PM73 °FBroken clouds.8 mph38%29.71 "HgN/A
2:00 PM73 °FBroken clouds.3 mph38%29.71 "HgN/A
1:30 PM73 °FBroken clouds.6 mph36%29.71 "HgN/A
1:00 PM73 °FBroken clouds.10 mph36%29.71 "HgN/A
12:30 PM73 °FSunny.6 mph47%29.71 "Hg10 mi
12:00 PM73 °FSunny.6 mph47%29.71 "Hg10 mi
11:30 AM72 °FSunny.3 mph50%29.71 "Hg10 mi
11:00 AM72 °FSunny.6 mph50%29.71 "Hg10 mi
10:30 AM68 °FSunny.3 mph56%29.71 "Hg10 mi
10:00 AM68 °FSunny.3 mph56%29.71 "Hg10 mi
9:30 AM66 °FSunny.3 mph60%29.71 "Hg10 mi
9:00 AM66 °FSunny.1 mph60%29.71 "Hg10 mi
8:30 AM61 °FSunny.1 mph68%29.71 "Hg10 mi
8:00 AM61 °FSunny.No wind68%29.71 "Hg10 mi
7:30 AM59 °FSunny.3 mph77%29.71 "Hg10 mi
7:00 AM59 °FSunny.3 mph77%29.71 "Hg10 mi
6:30 AM55 °FSunny.6 mph82%29.71 "Hg10 mi
6:00 AM55 °FSunny.6 mph82%29.71 "Hg10 mi
5:30 AM54 °FSunny.6 mph82%29.71 "Hg10 mi
5:00 AM54 °FClear.6 mph82%29.71 "Hg10 mi
4:30 AM54 °FClear.6 mph82%29.71 "Hg10 mi
4:00 AM54 °FClear.6 mph82%29.71 "Hg10 mi
3:30 AM54 °FClear.6 mph82%29.71 "Hg10 mi
3:00 AM54 °FClear.6 mph82%29.71 "Hg10 mi
2:30 AM54 °FClear.3 mph82%29.71 "Hg10 mi
2:00 AM54 °FClear.6 mph82%29.71 "Hg10 mi
1:30 AM55 °FClear.3 mph77%29.74 "Hg10 mi
1:00 AM55 °FClear.3 mph77%29.74 "Hg10 mi
11:30 PM
Sun, May 3
55 °FClear.3 mph77%29.77 "Hg10 mi
11:00 PM55 °FClear.3 mph77%29.77 "Hg10 mi
10:30 PM57 °FClear.3 mph77%29.77 "Hg10 mi
10:00 PM57 °FClear.3 mph77%29.77 "Hg10 mi
9:30 PM61 °FClear.3 mph63%29.77 "Hg10 mi
9:00 PM61 °FClear.6 mph63%29.77 "Hg10 mi
8:30 PM63 °FClear.6 mph59%29.77 "Hg10 mi
8:00 PM63 °FSunny.8 mph59%29.77 "Hg10 mi
7:30 PM66 °FScattered clouds.8 mph52%29.74 "HgN/A
7:00 PM66 °FScattered clouds.10 mph52%29.74 "HgN/A
6:30 PM68 °FSunny.10 mph46%29.77 "Hg10 mi
6:00 PM68 °FSunny.10 mph46%29.77 "Hg10 mi
5:30 PM70 °FSunny.13 mph43%29.77 "Hg10 mi
5:00 PM70 °FSunny.13 mph43%29.77 "Hg10 mi
4:30 PM72 °FSunny.13 mph44%29.77 "Hg10 mi
4:00 PM72 °FSunny.13 mph44%29.77 "Hg10 mi
Weather by CustomWeather, © 2015

See weather overviewHow to use our weather pages